Location: Abraham Lincoln Continuation High School
(33.9711°N, 117.3662°W)
Time: 10:40:02
(UTC+00:00)

X-37B - Pass Details

Date: 17 January 2021
Orbit: 383 x 391 km, 45.0° (Epoch: 27 February)

Event Time Altitude Azimuth Distance (km) Brightness Sun altitude
Rises 03:23:48 0° 252° (WSW) 2,266 5.7 -28.5°
Reaches altitude 10° 03:25:56 10° 259° (W) 1,415 4.4 -28.9°
Enters shadow 03:26:36 15° 264° (W) 1,163 3.8 -29.0°
